Terminal Aerodrome Forecast
Issued by NWS Memphis, TN

Home | Current Version | Previous Version | Text Only | Print | Product List | Glossary On
Versions: 1 2 3 4 5 6 7 8 9 10 11 12 13 14 15 16 17 18 19 20 21 22
000
FTUS44 KMEG 060526
TAFMKL
TAF
KMKL 060526Z 0606/0706 20003KT 5SM BR SKC
      TEMPO 0606/0609 2SM BR
     FM060900 00000KT 2SM BR SCT003
      TEMPO 0609/0613 1/2SM FG VV002
     FM061400 22006KT P6SM SCT015
     FM061600 23008KT P6SM SCT025 BKN035
     FM061800 23008KT P6SM VCTS SCT025CB BKN035
     FM070100 19006KT P6SM SCT150=

USA.gov is the U.S. government's official web portal to all federal, state and local government web resources and services.